Weather History for KARG - March, 2013

Change the Weather History Date:

Monday, March 25, 2013

  Actual Average Record
Temperature  
Mean Temperature 34 °F -  
Max Temperature 37 °F 60 °F 80 °F (2007)
Min Temperature 30 °F 42 °F 28 °F (2001)
Degree Days  
Heating Degree Days 32    
Moisture  
Dew Point 23 °F    
Average Humidity 64    
Maximum Humidity 75    
Minimum Humidity 56    
Precipitation  
Precipitation 0.00 in - - ()
Sea Level Pressure  
Sea Level Pressure 30.11 in    
Wind  
Wind Speed 18 mph (WNW)    
Max Wind Speed 26 mph    
Max Gust Speed 33 mph    
Visibility 10 miles    
Events      
Averages and records for this station are not official NWS values.
T = Trace of Precipitation, MM = Missing Value Source: NWS Daily Summary

Daily Weather History Graph

Daily Weather History Graph

Search for Another Location

Airport or City:

Trip Planner

Search our weather history database for the weather conditions in past years. The results will help you decide how hot, cold, wet, or windy it might be!

Date:

Astronomy

Mar. 25, 2013 Rise Set
Actual Time 6:59 AM CDT 7:19 PM CDT
Civil Twilight 6:33 AM CDT 7:45 PM CDT
Nautical Twilight 6:03 AM CDT 8:15 PM CDT
Astronomical Twilight 5:33 AM CDT 8:46 PM CDT
Moon 5:53 PM CDT (3/25) 5:40 AM CDT (3/25)
Length of Visible Light 13h 11m
Length of Day
12h 20m
Waxing Gibbous, 96% of the Moon is Illuminated
Mar 25
Waxing Gibbous
Mar 27
Full
Apr 2
Last Quarter
Apr 10
New
Apr 18
First Quarter

Hourly Weather History & Observations

Time (CDT) Temp. Windchill Dew Point Humidity Pressure Visibility Wind Dir Wind Speed Gust Speed Precip Events Conditions
12:35 AM 35.6 °F 24.8 °F 24.8 °F 65% 29.98 in 10.0 mi WNW 19.6 mph 26.5 mph N/A   Overcast
12:55 AM 35.6 °F 24.8 °F 24.8 °F 65% 29.98 in 10.0 mi WNW 19.6 mph - N/A   Overcast
1:15 AM 35.6 °F 24.5 °F 23.0 °F 60% 29.98 in 10.0 mi WNW 20.7 mph 26.5 mph N/A   Overcast
1:35 AM - - - N/A% 29.99 in 10.0 mi WNW 18.4 mph 26.5 mph N/A   Overcast
1:55 AM 33.8 °F 22.8 °F 23.0 °F 65% 29.99 in 10.0 mi WNW 18.4 mph 24.2 mph N/A   Overcast
2:35 AM 33.8 °F 23.5 °F 23.0 °F 65% 29.99 in 10.0 mi WNW 16.1 mph 25.3 mph N/A   Overcast
3:35 AM 33.8 °F 23.5 °F 23.0 °F 65% 29.98 in 10.0 mi WNW 16.1 mph 23.0 mph N/A   Overcast
3:55 AM 33.8 °F 23.9 °F 21.2 °F 60% 29.98 in 10.0 mi WNW 15.0 mph - N/A   Overcast
4:15 AM 33.8 °F 24.3 °F 21.2 °F 60% 29.98 in 10.0 mi WNW 13.8 mph - N/A   Overcast
4:35 AM 33.8 °F 24.3 °F 21.2 °F 60% 29.99 in 10.0 mi WNW 13.8 mph - N/A   Overcast
4:55 AM 33.8 °F 22.8 °F 21.2 °F 60% 29.99 in 10.0 mi WNW 18.4 mph 25.3 mph N/A   Overcast
5:16 AM 33.8 °F 24.3 °F 21.2 °F 60% 30.00 in 10.0 mi West 13.8 mph - N/A   Overcast
5:36 AM 33.8 °F 24.8 °F 19.4 °F 56% 30.00 in 10.0 mi West 12.7 mph 16.1 mph N/A   Overcast
6:35 AM 30.2 °F 20.8 °F 19.4 °F 64% 30.01 in 10.0 mi West 11.5 mph - N/A   Mostly Cloudy
6:55 AM 30.2 °F 18.5 °F 19.4 °F 64% 30.02 in 10.0 mi West 17.3 mph 24.2 mph N/A   Clear
7:15 AM 30.2 °F 18.1 °F 19.4 °F 64% 30.04 in 10.0 mi WNW 18.4 mph 25.3 mph N/A   Clear
7:35 AM 30.2 °F 18.5 °F 19.4 °F 64% 30.04 in 10.0 mi WNW 17.3 mph 21.9 mph N/A   Clear
7:55 AM 30.2 °F 18.1 °F 19.4 °F 64% 30.04 in 10.0 mi WNW 18.4 mph - N/A   Clear
8:35 AM 32.0 °F 20.8 °F 21.2 °F 64% 30.05 in 10.0 mi West 17.3 mph 20.7 mph N/A   Clear
8:55 AM 32.0 °F 21.2 °F 21.2 °F 64% 30.06 in 10.0 mi West 16.1 mph - N/A   Clear
9:16 AM 33.8 °F 22.8 °F 21.2 °F 60% 30.06 in 10.0 mi WNW 18.4 mph - N/A   Clear
9:35 AM 33.8 °F 22.8 °F 21.2 °F 60% 30.08 in 10.0 mi WNW 18.4 mph 24.2 mph N/A   Clear
10:15 AM 35.6 °F 24.5 °F 24.8 °F 65% 30.09 in 10.0 mi WNW 20.7 mph 25.3 mph N/A   Partly Cloudy
10:35 AM 37.4 °F 27.2 °F 23.0 °F 56% 30.10 in 10.0 mi WNW 19.6 mph 23.0 mph N/A   Scattered Clouds
11:15 AM 37.4 °F 26.4 °F 23.0 °F 56% 30.11 in 10.0 mi WNW 23.0 mph 26.5 mph N/A   Overcast
11:35 AM - - - N/A% 30.11 in 10.0 mi NW 25.3 mph - N/A   Overcast
11:36 AM - - - N/A% 30.11 in 10.0 mi NW 26.5 mph 33.4 mph N/A   Overcast
11:55 AM 37.4 °F 25.6 °F 24.8 °F 60% 30.12 in 10.0 mi WNW 26.5 mph 31.1 mph N/A   Overcast
12:15 PM - - - N/A% 30.11 in 10.0 mi WNW 21.9 mph - N/A   Overcast
12:35 PM - - - N/A% 30.12 in 10.0 mi NW 24.2 mph - N/A   Overcast
12:55 PM - - - N/A% 30.12 in 10.0 mi WNW 24.2 mph 28.8 mph N/A   Overcast
1:15 PM - - - N/A% 30.13 in 10.0 mi WNW 21.9 mph 27.6 mph N/A   Overcast
1:35 PM - - - N/A% 30.14 in 10.0 mi WNW 18.4 mph 26.5 mph N/A   Overcast
1:55 PM - - - N/A% 30.13 in 10.0 mi WNW 23.0 mph 26.5 mph N/A   Overcast
2:15 PM - - - N/A% 30.13 in 10.0 mi WNW 18.4 mph 24.2 mph N/A   Overcast
2:55 PM - - - N/A% 30.14 in 10.0 mi WNW 21.9 mph 28.8 mph N/A   Overcast
3:15 PM - - - N/A% 30.14 in 10.0 mi WNW 23.0 mph 26.5 mph N/A   Overcast
3:35 PM - - - N/A% 30.14 in 10.0 mi WNW 18.4 mph - N/A   Overcast
3:55 PM - - - N/A% 30.15 in 10.0 mi WNW 20.7 mph 27.6 mph N/A   Overcast
4:35 PM - - - N/A% 30.16 in 10.0 mi WNW 18.4 mph 23.0 mph N/A   Overcast
4:36 PM - - - N/A% 30.16 in 10.0 mi WNW 18.4 mph 23.0 mph N/A   Overcast
4:55 PM 35.6 °F 24.8 °F 24.8 °F 65% 30.17 in 10.0 mi WNW 19.6 mph 25.3 mph N/A   Overcast
5:35 PM 37.4 °F 27.5 °F 23.0 °F 56% 30.17 in 10.0 mi WNW 18.4 mph 24.2 mph N/A   Overcast
5:55 PM 37.4 °F 27.8 °F 24.8 °F 60% 30.18 in 10.0 mi WNW 17.3 mph - N/A   Overcast
6:15 PM 37.4 °F 28.5 °F 24.8 °F 60% 30.18 in 10.0 mi WNW 15.0 mph - N/A   Overcast
6:35 PM 37.4 °F 28.5 °F 24.8 °F 60% 30.18 in 10.0 mi WNW 15.0 mph 20.7 mph N/A   Overcast
7:15 PM 37.4 °F 29.3 °F 24.8 °F 60% 30.20 in 10.0 mi WNW 12.7 mph - N/A   Overcast
7:55 PM 35.6 °F 26.6 °F 24.8 °F 65% 30.21 in 10.0 mi WNW 13.8 mph 17.3 mph N/A   Mostly Cloudy
8:15 PM 35.6 °F 28.0 °F 24.8 °F 65% 30.21 in 10.0 mi West 10.4 mph - N/A   Overcast
8:35 PM 35.6 °F 28.0 °F 26.6 °F 70% 30.22 in 10.0 mi West 10.4 mph - N/A   Overcast
8:55 PM 35.6 °F 28.6 °F 26.6 °F 70% 30.23 in 10.0 mi West 9.2 mph - N/A   Mostly Cloudy
9:35 PM 33.8 °F 23.5 °F 24.8 °F 70% 30.24 in 10.0 mi WNW 16.1 mph 25.3 mph N/A   Clear
9:55 PM 33.8 °F 23.9 °F 24.8 °F 70% 30.24 in 10.0 mi NW 15.0 mph - N/A   Clear
10:55 PM 33.8 °F 25.8 °F 24.8 °F 70% 30.27 in 10.0 mi WNW 10.4 mph - N/A   Clear
11:15 PM 32.0 °F 24.2 °F 24.8 °F 75% 30.27 in 10.0 mi West 9.2 mph - N/A   Clear
11:35 PM 32.0 °F 24.2 °F 24.8 °F 75% 30.27 in 10.0 mi West 9.2 mph 16.1 mph N/A   Clear
11:55 PM 32.0 °F 23.0 °F 23.0 °F 69% 30.27 in 10.0 mi WNW 11.5 mph - N/A   Clear